Regional Weather Roundup
Issued by NWS Portland, ME

Home | Current Version | Previous Version | Text Only | Print | Product List | Glossary On
Versions: 1 2 3 4 5 6 7 8 9 10 11 12 13 14 15 16 17 18 19 20 21 22 23 24 25 26 27 28 29 30 31 32 33 34 35 36 37 38 39 40 41 42 43 44 45 46 47 48 49 50
000
ASUS41 KGYX 281905
RWRGYX
WEATHER ROUNDUP FOR MAINE AND NEW HAMPSHIRE
NATIONAL WEATHER SERVICE GRAY ME
300 PM EDT WED SEP 28 2016

MEZ002-005-006-010-012-015-018-020-021-024-026-027-029-282000-
MAINE

CITY           SKY/WX    TMP DP  RH WIND       PRES   REMARKS
PORTLAND       PTSUNNY   60  47  61 NE7       30.30F
SANFORD        CLOUDY    56  48  74 NE8       30.31R
BAR HARBOR     CLOUDY   N/A N/A N/A NE15      30.31
WISCASSET      CLOUDY    64  48  56 VRB3      30.30F
ROCKLAND       CLOUDY    62  50  64 NE12      30.30S
FRYEBURG       PTSUNNY   59  49  69 VRB7      30.31F
LEWISTONAUBURN PTSUNNY   62  48  60 E8        30.31S
AUGUSTA        MOSUNNY   63  45  51 NE8       30.31R
WATERVILLE     MOSUNNY   63  47  55 VRB6      30.29S
BANGOR         MOSUNNY   65  45  48 E12       30.32S
GREENVILLE       N/A     58  44  60 VRB7      30.32S
MILLINOCKET    MOSUNNY   61  41  47 NE12      30.36S
HOULTON        PTSUNNY   60  43  53 NE16      30.37R
PRESQUE ISLE   NOT AVBL
FRENCHVILLE    CLOUDY    52  37  56 NE7       30.41S
CARIBOU        CLOUDY    55  40  56 NE8       30.41R
$$

NHZ002-005-008-009-011-012-014-282000-
NEW HAMPSHIRE

CITY           SKY/WX    TMP DP  RH WIND       PRES   REMARKS
PORTSMOUTH     CLOUDY    55  47  75 NE9       30.29R
ROCHESTER      CLOUDY    55  46  71 NE8       30.30R
NASHUA         CLOUDY    55  50  83 E10       30.28S
MANCHESTER     CLOUDY    55  47  74 NE10      30.28R
CONCORD        CLOUDY    56  47  71 E10       30.29S
LACONIA        CLOUDY    56  48  74 NE9       30.30S
PLYMOUTH       CLOUDY    59  49  70 SE9       30.28S
BERLIN         PTSUNNY   64  48  56 NW9       30.29R
WHITEFIELD     SUNNY     65  49  56 E13G20    30.25S
JAFFREY        CLOUDY    54  48  80 CALM      30.27S
KEENE          CLOUDY    57  50  77 NE10      30.26F
LEBANON        PTSUNNY   60  51  72 VRB6      30.26S
MT WASHINGTON  PTSUNNY   43  37  81 E5          N/A  VSB 1
$$

VTZ005-007-008-282000-
VERMONT

CITY           SKY/WX    TMP DP  RH WIND       PRES   REMARKS
ST JOHNSBURY     N/A     69  51  52 MISG      30.22F
MONTPELIER     SUNNY     64  49  57 S8        30.28F
BURLINGTON     MOSUNNY   70  49  47 E12       30.22S
$$

MAZ007-012-024-CTZ003-RIZ002-NYZ038-NYZ072-282000-
SOUTHERN NEW ENGLAND AND NY

CITY           SKY/WX    TMP DP  RH WIND       PRES   REMARKS
BOSTON         CLOUDY    56  52  86 NE20      30.26R
WORCESTER      LGT RAIN  52  49  89 NE10G22   30.24R
NANTUCKET      CLOUDY    61  59  93 NE23G31   30.14S FOG
PROVIDENCE     LGT RAIN  58  53  84 NE17      30.22R FOG
HARTFORD       CLOUDY    62  50  64 E10       30.21S
ALBANY         PTSUNNY   66  51  58 E8        30.19R
NEW YORK CITY  CLOUDY    69  57  65 NE22G28   30.13R
$$

ANZ081-ANZ082-ANZ150-NHZ014-MEZ023>029-282000-
COASTAL MARINE OBSERVATIONS

STATION/POSITION TIME  TEMP    WIND        PRES    WAVE
                       AIR SEA DIR/SP/G            HT/PER
                 (UTC) (F)     (DEG/KT/KT) (MB)    (FT/S)
MOUNT DESERT ROC 1900   55      30/ 23/ 26 1025.7R
MATINICUS ROCK   1800   54      50/ 20/ 22 1025.2R
ISLE OF SHOALS   1800   54      40/ 25/ 27 1024.3S
JEFFREYS LEDGE   1838      61                N/A     8/ 7
CASHES LEDGE BUO 1750   56 59   50/ 21/ 25 1024.0    6/ 6
GEORGES BANK BUO 1750   67 63              1018.3    5/ 7
$$

.............KEY..............
   WCI - WIND CHILL
   TC  - TEMPERATURE IN CELSIUS
   VSB - VISIBILITY IN MILES
   HX  - HEAT INDEX
   FAIR- INDICATES FEW OR NO CLOUDS BELOW 12,000 FT, WITH NO
         SIGNIFICANT WEATHER AND/OR OBSTRUCTIONS TO VISIBILITY.





USA.gov is the U.S. government's official web portal to all federal, state and local government web resources and services.